Home   Weather   Tuzla   Past weeks

Flag for Bosnia-Herzegovina Past Weather in Tuzla, Bosnia-Herzegovina — Yesterday and Last 2 Weeks

Now
81 °F

Passing clouds.


Feels Like: 81 °F
Forecast: 67 / 90 °F
Wind: 2 mph from North

Location: Tuzla

Current Time: Jul 23, 2017 at 9:02:27 pm

Latest Report: Jul 23, 2017 at 8:30 pm


Visibility: N/A

Pressure: 29.89 "Hg

Humidity: 51%

Dew Point: 61 °F

Location of TuzlaLocation

Past Weather in Tuzla — Graph

°F

Tuzla Temperature Yesterday

Maximum temperature yesterday: 95 °F (at 4:30 pm)
Minimum temperature yesterday: 59 °F (at 5:30 am)
Average temperature yesterday: 79 °F

High & Low Weather Summary for the Past Weeks

 TemperatureHumidityPressure
High97 °F (Jul 10, 3:00 pm)100% (Jul 9, 5:00 am)30.18 "Hg (Jul 9, 5:00 am)
Low46 °F (Jul 14, 5:30 am)25% (Jul 23, 3:00 pm)29.86 "Hg (Jul 10, 5:00 pm)
Average75 °F58%30.00 "Hg
* Reported Jul 8 7:00 pm — Jul 23 7:30 pm, Tuzla. Weather by CustomWeather, © 2017

Note: Actual official high and low records may vary slightly from our data, if they occured in-between our weather recording intervals... More about our weather records

Advertising

Tuzla Weather History for the Previous 24 Hours

Scroll right to see more
 ConditionsComfort  
Time TempWeatherWind HumidityBarometerVisibility
7:30 pm
Sun, Jul 23
88 °FPassing clouds.2 mph38%29.89 "HgN/A
7:00 pm90 °FScattered clouds.5 mph36%29.86 "HgN/A
6:30 pm93 °FScattered clouds.6 mph32%29.86 "HgN/A
6:00 pm95 °FScattered clouds.2 mph30%29.86 "HgN/A
5:30 pm95 °FScattered clouds.2 mph28%29.86 "HgN/A
5:00 pm97 °FScattered clouds.3 mph27%29.86 "HgN/A
4:30 pm95 °FScattered clouds.5 mph26%29.89 "HgN/A
4:00 pm97 °FScattered clouds.6 mph25%29.89 "HgN/A
3:30 pm97 °FScattered clouds.3 mph25%29.89 "HgN/A
3:00 pm97 °FScattered clouds.7 mph25%29.92 "HgN/A
2:30 pm95 °FScattered clouds.3 mph26%29.92 "HgN/A
2:00 pm95 °FScattered clouds.5 mph26%29.92 "HgN/A
1:30 pm95 °FScattered clouds.6 mph26%29.92 "HgN/A
1:00 pm93 °FScattered clouds.6 mph28%29.95 "HgN/A
12:30 pm93 °FPassing clouds.6 mph28%29.95 "HgN/A
12:00 pm91 °FPassing clouds.8 mph32%29.95 "HgN/A
11:30 am90 °FPassing clouds.8 mph33%29.95 "HgN/A
11:00 am90 °FPassing clouds.7 mph36%29.98 "HgN/A
10:00 am84 °FSunny.2 mph45%29.98 "Hg10 mi
9:30 am81 °FSunny.1 mph54%29.98 "Hg10 mi
9:00 am77 °FSunny.2 mph61%29.98 "Hg10 mi
8:30 am73 °FSunny.1 mph65%29.98 "Hg10 mi
8:00 am68 °FPassing clouds.3 mph73%29.98 "HgN/A
7:30 am66 °FSunny.2 mph68%29.98 "Hg10 mi
7:00 am64 °FSunny.1 mph73%29.98 "Hg10 mi
6:30 am63 °FSunny.2 mph77%29.98 "Hg10 mi
6:00 am59 °FSunny.1 mph82%29.98 "Hg10 mi
5:30 am59 °FSunny.1 mph82%29.98 "Hg10 mi
5:00 am61 °FClear.1 mph83%29.98 "Hg10 mi
4:30 am59 °FClear.2 mph82%29.95 "Hg10 mi
12:00 am68 °FClear.1 mph60%29.95 "Hg10 mi
11:30 pm
Sat, Jul 22
68 °FClear.1 mph60%29.95 "Hg10 mi
11:00 pm73 °FClear.1 mph53%29.95 "Hg10 mi
10:30 pm73 °FClear.2 mph53%29.95 "Hg10 mi
10:00 pm73 °FClear.1 mph53%29.95 "Hg10 mi
9:30 pm75 °FClear.3 mph54%29.95 "Hg10 mi
9:00 pm77 °FPassing clouds.3 mph51%29.92 "HgN/A
Weather by CustomWeather, © 2017

See weather overviewHow to use our weather pages